Time,TemperatureF,DewpointF,PressureIn,WindDirection,WindDirectionDegrees,WindSpeedMPH,WindSpeedGustMPH,Humidity,HourlyPrecipIn,Conditions,Clouds,dailyrainin,SoftwareType,DateUTC
2013-01-26 00:00:00,1.1,-4.2,30.46,North,359,1.0,1.0,78,0.00,,,0.00,Wunderground v.1.15,2013-01-26 06:00:00,
2013-01-26 00:05:00,1.1,-4.2,30.45,NNE,16,2.0,4.0,78,0.00,,,0.00,Wunderground v.1.15,2013-01-26 06:05:00,
2013-01-26 00:10:00,1.0,-4.3,30.45,North,359,2.0,3.0,78,0.00,,,0.00,Wunderground v.1.15,2013-01-26 06:10:00,
2013-01-26 00:20:00,0.9,-4.6,30.45,North,4,4.0,5.0,77,0.00,,,0.00,Wunderground v.1.15,2013-01-26 06:20:00,
2013-01-26 00:30:00,0.8,-4.7,30.45,NNW,334,4.0,4.0,77,0.00,,,0.00,Wunderground v.1.15,2013-01-26 06:30:00,
2013-01-26 00:40:00,0.7,-4.8,30.45,North,4,3.0,4.0,77,0.00,,,0.00,Wunderground v.1.15,2013-01-26 06:40:00,
2013-01-26 00:49:00,0.6,-4.9,30.45,North,354,3.0,4.0,77,0.00,,,0.00,Wunderground v.1.15,2013-01-26 06:49:00,
2013-01-26 00:55:00,0.5,-5.0,30.46,North,349,3.0,4.0,77,0.00,,,0.00,Wunderground v.1.15,2013-01-26 06:55:00,
2013-01-26 01:05:00,0.5,-5.0,30.46,North,359,2.0,2.0,77,0.00,,,0.00,Wunderground v.1.15,2013-01-26 07:05:00,
2013-01-26 01:15:00,0.4,-5.1,30.46,NNE,19,2.0,3.0,77,0.00,,,0.00,Wunderground v.1.15,2013-01-26 07:15:00,
2013-01-26 01:24:00,0.2,-5.0,30.45,North,350,4.0,4.0,78,0.00,,,0.00,Wunderground v.1.15,2013-01-26 07:24:00,
2013-01-26 01:30:00,0.1,-5.1,30.45,NNE,12,3.0,4.0,78,0.00,,,0.00,Wunderground v.1.15,2013-01-26 07:30:00,
2013-01-26 01:40:00,0.0,-5.2,30.46,NNE,16,3.0,4.0,78,0.00,,,0.00,Wunderground v.1.15,2013-01-26 07:40:00,
2013-01-26 01:49:00,-0.1,-5.3,30.46,NNE,14,3.0,3.0,78,0.00,,,0.00,Wunderground v.1.15,2013-01-26 07:49:00,
2013-01-26 01:54:00,-0.2,-5.4,30.47,NNE,16,3.0,3.0,78,0.00,,,0.00,Wunderground v.1.15,2013-01-26 07:54:00,
2013-01-26 02:05:00,-0.3,-5.5,30.47,NNE,20,3.0,3.0,78,0.00,,,0.00,Wunderground v.1.15,2013-01-26 08:05:00,
2013-01-26 02:14:00,-0.4,-5.6,30.47,North,11,2.0,3.0,78,0.00,,,0.00,Wunderground v.1.15,2013-01-26 08:14:00,
2013-01-26 02:20:00,-0.4,-5.6,30.47,NNE,17,1.0,1.0,78,0.00,,,0.00,Wunderground v.1.15,2013-01-26 08:20:00,
2013-01-26 02:30:00,-0.5,-5.5,30.47,NNE,18,1.0,1.0,79,0.00,,,0.00,Wunderground v.1.15,2013-01-26 08:30:00,
2013-01-26 02:40:00,-0.5,-5.5,30.47,NNE,17,0.0,0.0,79,0.00,,,0.00,Wunderground v.1.15,2013-01-26 08:40:00,
2013-01-26 02:49:00,-0.4,-5.4,30.47,NNE,18,0.0,0.0,79,0.00,,,0.00,Wunderground v.1.15,2013-01-26 08:49:00,
2013-01-26 02:55:00,-0.4,-5.4,30.46,NNE,17,0.0,0.0,79,0.00,,,0.00,Wunderground v.1.15,2013-01-26 08:55:00,
2013-01-26 03:05:00,-0.2,-5.2,30.46,NNE,17,0.0,0.0,79,0.00,,,0.00,Wunderground v.1.15,2013-01-26 09:05:00,
2013-01-26 03:15:00,-0.4,-5.4,30.46,NNE,18,0.0,0.0,79,0.00,,,0.00,Wunderground v.1.15,2013-01-26 09:15:00,
2013-01-26 03:25:00,-0.2,-5.2,30.46,NNE,18,0.0,1.0,79,0.00,,,0.00,Wunderground v.1.15,2013-01-26 09:25:00,
2013-01-26 03:35:00,-0.1,-5.1,30.46,NNE,18,0.0,0.0,79,0.00,,,0.00,Wunderground v.1.15,2013-01-26 09:35:00,
2013-01-26 03:45:00,0.0,-5.0,30.46,NNE,17,0.0,0.0,79,0.00,,,0.00,Wunderground v.1.15,2013-01-26 09:45:00,
2013-01-26 03:55:00,0.1,-5.1,30.45,NNE,17,0.0,0.0,78,0.00,,,0.00,Wunderground v.1.15,2013-01-26 09:55:00,
2013-01-26 04:05:00,-0.3,-5.5,30.45,NNE,17,1.0,1.0,78,0.00,,,0.00,Wunderground v.1.15,2013-01-26 10:05:00,
2013-01-26 04:15:00,-0.6,-5.6,30.45,NNE,18,0.0,1.0,79,0.00,,,0.00,Wunderground v.1.15,2013-01-26 10:15:00,
2013-01-26 04:25:00,-0.9,-5.8,30.45,NNE,18,0.0,0.0,79,0.00,,,0.00,Wunderground v.1.15,2013-01-26 10:25:00,
2013-01-26 04:34:00,-1.0,-5.9,30.45,NNE,17,0.0,0.0,79,0.00,,,0.00,Wunderground v.1.15,2013-01-26 10:34:00,
2013-01-26 04:39:00,-1.0,-5.7,30.46,NNE,17,0.0,0.0,80,0.00,,,0.00,Wunderground v.1.15,2013-01-26 10:39:00,
2013-01-26 04:50:00,-1.0,-5.9,30.46,NNE,17,0.0,0.0,79,0.00,,,0.00,Wunderground v.1.15,2013-01-26 10:50:00,
2013-01-26 05:00:00,-0.9,-5.6,30.45,NNE,17,0.0,0.0,80,0.00,,,0.00,Wunderground v.1.15,2013-01-26 11:00:00,
2013-01-26 05:05:00,-0.9,-5.6,30.46,NNE,18,0.0,0.0,80,0.00,,,0.00,Wunderground v.1.15,2013-01-26 11:05:00,
2013-01-26 05:15:00,-0.6,-5.3,30.46,NNE,18,0.0,0.0,80,0.00,,,0.00,Wunderground v.1.15,2013-01-26 11:15:00,
2013-01-26 05:24:00,-0.7,-5.4,30.46,NNE,17,0.0,0.0,80,0.00,,,0.00,Wunderground v.1.15,2013-01-26 11:24:00,
2013-01-26 05:30:00,-0.7,-5.7,30.46,NNE,17,0.0,0.0,79,0.00,,,0.00,Wunderground v.1.15,2013-01-26 11:30:00,
2013-01-26 05:40:00,-0.8,-5.5,30.46,NNE,18,0.0,0.0,80,0.00,,,0.00,Wunderground v.1.15,2013-01-26 11:40:00,
2013-01-26 05:50:00,-0.8,-5.5,30.46,NNE,17,0.0,0.0,80,0.00,,,0.00,Wunderground v.1.15,2013-01-26 11:50:00,
2013-01-26 06:00:00,-0.7,-5.4,30.46,NNE,18,0.0,0.0,80,0.00,,,0.00,Wunderground v.1.15,2013-01-26 12:00:00,
2013-01-26 06:05:00,-0.6,-5.3,30.47,NNE,17,0.0,0.0,80,0.00,,,0.00,Wunderground v.1.15,2013-01-26 12:05:00,
2013-01-26 06:14:00,-0.4,-5.1,30.48,NNE,18,0.0,0.0,80,0.00,,,0.00,Wunderground v.1.15,2013-01-26 12:14:00,
2013-01-26 06:20:00,-0.3,-5.0,30.48,NNE,18,0.0,0.0,80,0.00,,,0.00,Wunderground v.1.15,2013-01-26 12:20:00,
2013-01-26 06:30:00,-0.4,-5.1,30.47,NNE,18,0.0,0.0,80,0.00,,,0.00,Wunderground v.1.15,2013-01-26 12:30:00,
2013-01-26 06:40:00,-0.5,-5.2,30.45,NNE,18,0.0,0.0,80,0.00,,,0.00,Wunderground v.1.15,2013-01-26 12:40:00,
2013-01-26 06:50:00,-0.7,-5.1,30.45,NNE,17,0.0,0.0,81,0.00,,,0.00,Wunderground v.1.15,2013-01-26 12:50:00,
2013-01-26 06:59:00,-0.5,-4.9,30.45,NE,40,0.0,0.0,81,0.00,,,0.00,Wunderground v.1.15,2013-01-26 12:59:00,
2013-01-26 07:05:00,-0.3,-4.7,30.45,ENE,77,1.0,1.0,81,0.00,,,0.00,Wunderground v.1.15,2013-01-26 13:05:00,
2013-01-26 07:14:00,0.0,-4.4,30.45,East,91,0.0,2.0,81,0.00,,,0.00,Wunderground v.1.15,2013-01-26 13:14:00,
2013-01-26 07:20:00,0.1,-4.3,30.46,East,91,0.0,0.0,81,0.00,,,0.00,Wunderground v.1.15,2013-01-26 13:20:00,
2013-01-26 07:30:00,0.4,-4.3,30.47,East,96,0.0,1.0,80,0.00,,,0.00,Wunderground v.1.15,2013-01-26 13:30:00,
2013-01-26 07:39:00,0.6,-4.1,30.47,ESE,102,0.0,0.0,80,0.00,,,0.00,Wunderground v.1.15,2013-01-26 13:39:00,
2013-01-26 07:45:00,0.6,-4.1,30.47,ESE,102,0.0,0.0,80,0.00,,,0.00,Wunderground v.1.15,2013-01-26 13:45:00,
2013-01-26 07:54:00,0.4,-4.3,30.47,East,89,1.0,2.0,80,0.00,,,0.00,Wunderground v.1.15,2013-01-26 13:54:00,
2013-01-26 08:00:00,0.6,-4.1,30.47,East,100,1.0,1.0,80,0.00,,,0.00,Wunderground v.1.15,2013-01-26 14:00:00,
2013-01-26 08:05:00,0.8,-3.9,30.47,ESE,121,1.0,1.0,80,0.00,,,0.00,Wunderground v.1.15,2013-01-26 14:05:00,
2013-01-26 08:14:00,1.0,-4.0,30.48,SE,138,1.0,1.0,79,0.00,,,0.00,Wunderground v.1.15,2013-01-26 14:14:00,
2013-01-26 08:20:00,1.2,-3.5,30.48,South,174,1.0,1.0,80,0.00,,,0.00,Wunderground v.1.15,2013-01-26 14:20:00,
2013-01-26 08:30:00,1.5,-3.2,30.48,SSE,149,0.0,0.0,80,0.00,,,0.00,Wunderground v.1.15,2013-01-26 14:30:00,
2013-01-26 08:39:00,1.7,-3.0,30.48,SSE,154,1.0,1.0,80,0.00,,,0.00,Wunderground v.1.15,2013-01-26 14:39:00,
2013-01-26 08:45:00,1.8,-2.9,30.49,SSE,154,1.0,1.0,80,0.00,,,0.00,Wunderground v.1.15,2013-01-26 14:45:00,
2013-01-26 08:55:00,2.3,-2.5,30.48,SE,145,1.0,1.0,80,0.00,,,0.00,Wunderground v.1.15,2013-01-26 14:55:00,
2013-01-26 09:05:00,2.8,-2.2,30.46,SSE,151,3.0,3.0,79,0.00,,,0.00,Wunderground v.1.15,2013-01-26 15:05:00,
2013-01-26 09:15:00,3.3,-1.7,30.46,SE,127,3.0,7.0,79,0.00,,,0.00,Wunderground v.1.15,2013-01-26 15:15:00,
2013-01-26 09:25:00,4.0,-1.1,30.46,SE,132,4.0,5.0,79,0.00,,,0.00,Wunderground v.1.15,2013-01-26 15:25:00,
2013-01-26 09:35:00,4.6,-0.5,30.46,SE,135,4.0,5.0,79,0.00,,,0.00,Wunderground v.1.15,2013-01-26 15:35:00,
2013-01-26 09:44:00,5.2,0.1,30.46,SE,143,4.0,4.0,79,0.00,,,0.00,Wunderground v.1.15,2013-01-26 15:44:00,
2013-01-26 09:50:00,5.4,0.0,30.46,SE,126,5.0,6.0,78,0.00,,,0.00,Wunderground v.1.15,2013-01-26 15:50:00,
2013-01-26 09:59:00,6.0,0.6,30.46,SE,127,5.0,5.0,78,0.00,,,0.00,Wunderground v.1.15,2013-01-26 15:59:00,
2013-01-26 10:05:00,6.1,0.7,30.46,ESE,120,5.0,5.0,78,0.00,,,0.00,Wunderground v.1.15,2013-01-26 16:05:00,
2013-01-26 10:15:00,6.6,1.5,30.46,SE,144,5.0,5.0,79,0.00,,,0.00,Wunderground v.1.15,2013-01-26 16:15:00,
2013-01-26 10:25:00,7.2,1.8,30.46,East,95,5.0,7.0,78,0.00,,,0.00,Wunderground v.1.15,2013-01-26 16:25:00,
2013-01-26 10:35:00,7.9,2.5,30.45,ENE,68,5.0,8.0,78,0.00,,,0.00,Wunderground v.1.15,2013-01-26 16:35:00,
2013-01-26 10:44:00,8.5,3.0,30.46,SE,133,4.0,6.0,78,0.00,,,0.00,Wunderground v.1.15,2013-01-26 16:44:00,
2013-01-26 10:50:00,8.8,3.1,30.45,ESE,122,4.0,4.0,77,0.00,,,0.00,Wunderground v.1.15,2013-01-26 16:50:00,
2013-01-26 11:00:00,9.6,3.8,30.44,SE,137,5.0,5.0,77,0.00,,,0.00,Wunderground v.1.15,2013-01-26 17:00:00,
2013-01-26 11:05:00,9.8,3.7,30.44,SSE,149,5.0,5.0,76,0.00,,,0.00,Wunderground v.1.15,2013-01-26 17:05:00,
2013-01-26 11:14:00,10.5,4.4,30.44,SE,131,4.0,7.0,76,0.00,,,0.00,Wunderground v.1.15,2013-01-26 17:14:00,
2013-01-26 11:25:00,11.2,4.8,30.42,SE,139,4.0,5.0,75,0.00,,,0.00,Wunderground v.1.15,2013-01-26 17:25:00,
2013-01-26 11:35:00,11.0,4.6,30.43,SSE,159,5.0,5.0,75,0.00,,,0.00,Wunderground v.1.15,2013-01-26 17:35:00,
2013-01-26 11:44:00,11.8,5.4,30.44,SSE,147,4.0,5.0,75,0.00,,,0.00,Wunderground v.1.15,2013-01-26 17:44:00,
2013-01-26 11:50:00,11.9,5.8,30.44,SE,141,3.0,3.0,76,0.00,,,0.00,Wunderground v.1.15,2013-01-26 17:50:00,
2013-01-26 12:00:00,12.0,5.9,30.43,ESE,116,3.0,5.0,76,0.00,,,0.00,Wunderground v.1.15,2013-01-26 18:00:00,
2013-01-26 12:05:00,12.5,6.4,30.42,ESE,116,3.0,8.0,76,0.00,,,0.00,Wunderground v.1.15,2013-01-26 18:05:00,
2013-01-26 12:14:00,13.3,6.9,30.42,SE,134,4.0,6.0,75,0.00,,,0.00,Wunderground v.1.15,2013-01-26 18:14:00,
2013-01-26 12:20:00,13.4,6.7,30.41,SSE,147,4.0,4.0,74,0.00,,,0.00,Wunderground v.1.15,2013-01-26 18:20:00,
2013-01-26 12:29:00,14.2,7.4,30.41,SE,145,5.0,7.0,74,0.00,,,0.00,Wunderground v.1.15,2013-01-26 18:29:00,
2013-01-26 12:35:00,14.5,8.0,30.40,SE,133,5.0,7.0,75,0.00,,,0.00,Wunderground v.1.15,2013-01-26 18:35:00,
2013-01-26 12:44:00,14.9,8.1,30.39,SE,133,4.0,9.0,74,0.00,,,0.00,Wunderground v.1.15,2013-01-26 18:44:00,
2013-01-26 12:50:00,15.2,8.1,30.39,SE,134,6.0,7.0,73,0.00,,,0.00,Wunderground v.1.15,2013-01-26 18:50:00,
2013-01-26 13:00:00,15.8,8.1,30.38,ESE,114,6.0,7.0,71,0.00,,,0.00,Wunderground v.1.15,2013-01-26 19:00:00,
2013-01-26 13:05:00,16.0,7.9,30.38,SE,126,7.0,11.0,70,0.00,,,0.00,Wunderground v.1.15,2013-01-26 19:05:00,
2013-01-26 13:15:00,16.7,8.9,30.37,SE,126,5.0,7.0,71,0.00,,,0.00,Wunderground v.1.15,2013-01-26 19:15:00,
2013-01-26 13:25:00,16.9,8.5,30.37,SE,138,5.0,8.0,69,0.00,,,0.00,Wunderground v.1.15,2013-01-26 19:25:00,
2013-01-26 13:34:00,17.2,8.8,30.36,SE,135,6.0,8.0,69,0.00,,,0.00,Wunderground v.1.15,2013-01-26 19:34:00,
2013-01-26 13:39:00,17.4,9.0,30.36,SE,133,6.0,6.0,69,0.00,,,0.00,Wunderground v.1.15,2013-01-26 19:39:00,
2013-01-26 13:50:00,17.9,9.4,30.35,SE,135,7.0,7.0,69,0.00,,,0.00,Wunderground v.1.15,2013-01-26 19:50:00,
2013-01-26 14:00:00,18.4,9.9,30.34,SE,137,7.0,7.0,69,0.00,,,0.00,Wunderground v.1.15,2013-01-26 20:00:00,
2013-01-26 14:05:00,18.8,10.0,30.34,SE,138,7.0,7.0,68,0.00,,,0.00,Wunderground v.1.15,2013-01-26 20:05:00,
2013-01-26 14:14:00,19.3,10.1,30.33,SE,127,7.0,9.0,67,0.00,,,0.00,Wunderground v.1.15,2013-01-26 20:14:00,
2013-01-26 14:20:00,19.4,9.9,30.33,SE,134,9.0,10.0,66,0.00,,,0.00,Wunderground v.1.15,2013-01-26 20:20:00,
2013-01-26 14:29:00,20.1,10.6,30.32,SE,133,8.0,9.0,66,0.00,,,0.00,Wunderground v.1.15,2013-01-26 20:29:00,
2013-01-26 14:40:00,20.6,11.0,30.32,SE,137,8.0,9.0,66,0.00,,,0.00,Wunderground v.1.15,2013-01-26 20:40:00,
2013-01-26 14:50:00,21.4,11.5,30.32,SE,135,7.0,7.0,65,0.00,,,0.00,Wunderground v.1.15,2013-01-26 20:50:00,
2013-01-26 14:59:00,21.7,11.7,30.32,East,101,8.0,9.0,65,0.00,,,0.00,Wunderground v.1.15,2013-01-26 20:59:00,
2013-01-26 15:05:00,21.8,11.5,30.32,SE,129,9.0,9.0,64,0.00,,,0.00,Wunderground v.1.15,2013-01-26 21:05:00,
2013-01-26 15:15:00,22.0,12.0,30.31,SE,143,7.0,11.0,65,0.00,,,0.00,Wunderground v.1.15,2013-01-26 21:15:00,
2013-01-26 15:25:00,22.2,11.9,30.30,South,170,8.0,8.0,64,0.00,,,0.00,Wunderground v.1.15,2013-01-26 21:25:00,
2013-01-26 15:34:00,22.2,11.5,30.30,SE,131,9.0,9.0,63,0.00,,,0.00,Wunderground v.1.15,2013-01-26 21:34:00,
2013-01-26 15:40:00,22.2,11.9,30.30,SE,143,8.0,8.0,64,0.00,,,0.00,Wunderground v.1.15,2013-01-26 21:40:00,
2013-01-26 15:49:00,22.4,11.7,30.30,SE,136,7.0,7.0,63,0.00,,,0.00,Wunderground v.1.15,2013-01-26 21:49:00,
2013-01-26 15:55:00,22.4,12.1,30.31,SE,137,7.0,7.0,64,0.00,,,0.00,Wunderground v.1.15,2013-01-26 21:55:00,
2013-01-26 16:05:00,22.5,12.5,30.31,SE,139,5.0,6.0,65,0.00,,,0.00,Wunderground v.1.15,2013-01-26 22:05:00,
2013-01-26 16:15:00,22.6,12.9,30.31,SE,141,4.0,4.0,66,0.00,,,0.00,Wunderground v.1.15,2013-01-26 22:15:00,
2013-01-26 16:24:00,22.7,13.0,30.30,SE,133,5.0,7.0,66,0.00,,,0.00,Wunderground v.1.15,2013-01-26 22:24:00,
2013-01-26 16:30:00,22.8,13.1,30.30,SE,125,5.0,5.0,66,0.00,,,0.00,Wunderground v.1.15,2013-01-26 22:30:00,
2013-01-26 16:39:00,22.8,13.1,30.30,ESE,122,6.0,6.0,66,0.00,,,0.00,Wunderground v.1.15,2013-01-26 22:39:00,
2013-01-26 16:45:00,22.8,13.1,30.30,ESE,120,5.0,7.0,66,0.00,,,0.00,Wunderground v.1.15,2013-01-26 22:45:00,
2013-01-26 16:54:00,22.9,13.2,30.30,SE,132,4.0,5.0,66,0.00,,,0.00,Wunderground v.1.15,2013-01-26 22:54:00,
2013-01-26 16:59:00,22.9,13.6,30.29,NE,52,5.0,5.0,67,0.00,,,0.00,Wunderground v.1.15,2013-01-26 22:59:00,
2013-01-26 17:05:00,23.0,13.7,30.29,SE,135,5.0,5.0,67,0.00,,,0.00,Wunderground v.1.15,2013-01-26 23:05:00,
2013-01-26 17:15:00,22.9,13.9,30.28,SE,133,4.0,5.0,68,0.00,,,0.00,Wunderground v.1.15,2013-01-26 23:15:00,
2013-01-26 17:24:00,23.0,14.3,30.28,SE,146,4.0,4.0,69,0.00,,,0.00,Wunderground v.1.15,2013-01-26 23:24:00,
2013-01-26 17:30:00,23.0,14.3,30.29,SE,129,3.0,4.0,69,0.00,,,0.00,Wunderground v.1.15,2013-01-26 23:30:00,
2013-01-26 17:39:00,23.0,14.0,30.28,SE,136,2.0,2.0,68,0.00,,,0.00,Wunderground v.1.15,2013-01-26 23:39:00,
2013-01-26 17:45:00,23.0,15.6,30.27,SE,130,3.0,3.0,73,0.00,,,0.00,Wunderground v.1.15,2013-01-26 23:45:00,
2013-01-26 17:55:00,22.7,13.4,30.27,SE,135,5.0,6.0,67,0.00,,,0.00,Wunderground v.1.15,2013-01-26 23:55:00,
2013-01-26 18:05:00,22.7,13.4,30.27,SE,130,5.0,5.0,67,0.00,,,0.00,Wunderground v.1.15,2013-01-27 00:05:00,
2013-01-26 18:14:00,22.6,13.3,30.27,SE,141,5.0,5.0,67,0.00,,,0.00,Wunderground v.1.15,2013-01-27 00:14:00,
2013-01-26 18:20:00,22.7,13.0,30.27,SE,124,5.0,9.0,66,0.00,,,0.00,Wunderground v.1.15,2013-01-27 00:20:00,
2013-01-26 18:30:00,22.6,12.9,30.27,SE,137,5.0,6.0,66,0.00,,,0.00,Wunderground v.1.15,2013-01-27 00:30:00,
2013-01-26 18:39:00,22.6,12.9,30.27,SE,131,6.0,6.0,66,0.00,,,0.00,Wunderground v.1.15,2013-01-27 00:39:00,
2013-01-26 18:45:00,22.5,13.2,30.27,SE,136,6.0,6.0,67,0.00,,,0.00,Wunderground v.1.15,2013-01-27 00:45:00,
2013-01-26 18:54:00,22.4,13.1,30.26,South,170,6.0,6.0,67,0.00,,,0.00,Wunderground v.1.15,2013-01-27 00:54:00,
2013-01-26 19:00:00,22.3,13.0,30.26,ESE,122,6.0,8.0,67,0.00,,,0.00,Wunderground v.1.15,2013-01-27 01:00:00,
2013-01-26 19:05:00,22.2,13.2,30.26,SE,128,6.0,8.0,68,0.00,,,0.00,Wunderground v.1.15,2013-01-27 01:05:00,
2013-01-26 19:15:00,22.1,13.1,30.27,SE,133,5.0,6.0,68,0.00,,,0.00,Wunderground v.1.15,2013-01-27 01:15:00,
2013-01-26 19:24:00,22.2,13.2,30.28,ESE,110,4.0,5.0,68,0.00,,,0.00,Wunderground v.1.15,2013-01-27 01:24:00,
2013-01-26 19:30:00,22.2,13.2,30.27,ESE,120,4.0,4.0,68,0.00,,,0.00,Wunderground v.1.15,2013-01-27 01:30:00,
2013-01-26 19:39:00,22.4,13.1,30.27,SE,132,5.0,6.0,67,0.00,,,0.00,Wunderground v.1.15,2013-01-27 01:39:00,
2013-01-26 19:45:00,22.4,13.1,30.27,ENE,67,5.0,6.0,67,0.00,,,0.00,Wunderground v.1.15,2013-01-27 01:45:00,
2013-01-26 19:55:00,22.3,12.7,30.27,SE,127,4.0,4.0,66,0.00,,,0.00,Wunderground v.1.15,2013-01-27 01:55:00,
2013-01-26 20:05:00,22.4,12.8,30.26,SE,141,4.0,5.0,66,0.00,,,0.00,Wunderground v.1.15,2013-01-27 02:05:00,
2013-01-26 20:15:00,22.5,12.8,30.26,SE,137,5.0,5.0,66,0.00,,,0.00,Wunderground v.1.15,2013-01-27 02:15:00,
2013-01-26 20:25:00,22.3,13.0,30.26,East,86,4.0,5.0,67,0.00,,,0.00,Wunderground v.1.15,2013-01-27 02:25:00,
2013-01-26 20:34:00,22.3,13.0,30.26,ESE,112,4.0,4.0,67,0.00,,,0.00,Wunderground v.1.15,2013-01-27 02:34:00,
2013-01-26 20:40:00,22.4,13.1,30.25,SE,127,5.0,5.0,67,0.00,,,0.00,Wunderground v.1.15,2013-01-27 02:40:00,
2013-01-26 20:49:00,22.2,12.9,30.25,SE,132,6.0,6.0,67,0.00,,,0.00,Wunderground v.1.15,2013-01-27 02:49:00,
2013-01-26 20:55:00,22.2,12.9,30.25,SE,133,5.0,7.0,67,0.00,,,0.00,Wunderground v.1.15,2013-01-27 02:55:00,
2013-01-26 21:05:00,22.1,12.8,30.25,ESE,110,5.0,5.0,67,0.00,,,0.00,Wunderground v.1.15,2013-01-27 03:05:00,
2013-01-26 21:15:00,22.1,12.8,30.24,SE,135,6.0,6.0,67,0.00,,,0.00,Wunderground v.1.15,2013-01-27 03:15:00,
2013-01-26 21:24:00,22.1,12.8,30.23,SE,126,6.0,10.0,67,0.00,,,0.00,Wunderground v.1.15,2013-01-27 03:24:00,
2013-01-26 21:30:00,22.2,12.9,30.23,SE,135,6.0,6.0,67,0.00,,,0.00,Wunderground v.1.15,2013-01-27 03:30:00,
2013-01-26 21:39:00,22.2,12.9,30.23,SE,133,6.0,6.0,67,0.00,,,0.00,Wunderground v.1.15,2013-01-27 03:39:00,
2013-01-26 21:45:00,22.2,12.9,30.23,ESE,122,6.0,8.0,67,0.00,,,0.00,Wunderground v.1.15,2013-01-27 03:45:00,
2013-01-26 21:54:00,22.0,13.0,30.22,SE,140,6.0,7.0,68,0.00,,,0.00,Wunderground v.1.15,2013-01-27 03:54:00,
2013-01-26 22:00:00,22.1,13.1,30.22,SE,130,7.0,7.0,68,0.00,,,0.00,Wunderground v.1.15,2013-01-27 04:00:00,
2013-01-26 22:05:00,22.0,13.0,30.22,SE,124,6.0,7.0,68,0.00,,,0.00,Wunderground v.1.15,2013-01-27 04:05:00,
2013-01-26 22:14:00,22.0,13.0,30.22,SE,140,7.0,8.0,68,0.00,,,0.00,Wunderground v.1.15,2013-01-27 04:14:00,
2013-01-26 22:20:00,22.0,13.4,30.22,ESE,123,7.0,7.0,69,0.00,,,0.00,Wunderground v.1.15,2013-01-27 04:20:00,
2013-01-26 22:29:00,22.1,13.5,30.21,SE,125,7.0,7.0,69,0.00,,,0.00,Wunderground v.1.15,2013-01-27 04:29:00,
2013-01-26 22:35:00,22.0,13.4,30.22,SE,133,7.0,7.0,69,0.00,,,0.00,Wunderground v.1.15,2013-01-27 04:35:00,
2013-01-26 22:44:00,22.1,13.5,30.22,SE,137,6.0,8.0,69,0.00,,,0.00,Wunderground v.1.15,2013-01-27 04:44:00,
2013-01-26 22:50:00,22.2,13.6,30.22,SE,133,6.0,6.0,69,0.00,,,0.00,Wunderground v.1.15,2013-01-27 04:50:00,
2013-01-26 22:59:00,22.3,13.7,30.22,ESE,119,6.0,7.0,69,0.00,,,0.00,Wunderground v.1.15,2013-01-27 04:59:00,
2013-01-26 23:05:00,22.4,13.8,30.21,SE,130,6.0,8.0,69,0.00,,,0.00,Wunderground v.1.15,2013-01-27 05:05:00,
2013-01-26 23:14:00,22.5,13.9,30.21,SSE,148,6.0,6.0,69,0.00,,,0.00,Wunderground v.1.15,2013-01-27 05:14:00,
2013-01-26 23:25:00,22.5,13.9,30.21,SE,125,7.0,8.0,69,0.00,,,0.00,Wunderground v.1.15,2013-01-27 05:25:00,
2013-01-26 23:34:00,22.3,14.0,30.21,ESE,122,6.0,7.0,70,0.00,,,0.00,Wunderground v.1.15,2013-01-27 05:34:00,
2013-01-26 23:40:00,22.2,14.2,30.21,ESE,121,6.0,7.0,71,0.00,,,0.00,Wunderground v.1.15,2013-01-27 05:40:00,
2013-01-26 23:50:00,22.2,14.2,30.21,SE,135,6.0,6.0,71,0.00,,,0.00,Wunderground v.1.15,2013-01-27 05:50:00,
2013-01-26 23:59:00,22.4,14.4,30.21,SE,131,6.0,6.0,71,0.00,,,0.00,Wunderground v.1.15,2013-01-27 05:59:00,